Location: Binningen
(47.7924°N, 8.7261°E)
Time: 18:29:10
(UTC+00:00)

Cosmos 1821 Rocket - Pass Details

Date: 17 May 2021
Orbit: 945 x 1004 km, 82.9° (Epoch: 21 June)

Event Time Altitude Azimuth Distance (km) Brightness Sun altitude
Rises 22:31:25 0° 350° (N) 3,744 8.6 -21.7°
Reaches altitude 10° 22:33:58 10° 349° (N) 2,789 7.6 -21.8°
Maximum altitude 22:40:23 82° 264° (W) 1,014 4.0 -22.0°
Enters shadow 22:42:43 42° 181° (S) 1,383 4.3 -22.1°
